Starlink 32224

operational
NORAD ID: 60941 Int'l Des: 2024-155 Owner: SPXS Country: US Constellation: starlink
LEOCIRCULAR

Über Starlink 32224

Beschreibung wird geladen...

Live-Position

3D-Globus wird geladen...

Nächste Überflüge

Höhenverlauf

Altitude vs Time

uPlot chart will show altitude changes over time

Zweizeiliger Elementsatz

1 60941U 24155T 25259.58335826 -.00000649 00000-0 -97705-5 0 9994
2 60941 53.1566 218.4270 0001453 90.4608 269.6559 15.30190793 59691
Epoch: 16. Sept. 2025 • Age: 19 hours

Aktueller Status

Höhe 487.7 km
Geschwindigkeit 7.62 km/s
Subsatellitenpunkt -36.30°S, 56.03°E
Startdatum 31. Aug. 2024
Alter 1 years
Typ internet

Technische Details

Klassifizierung Payload
Masse 730.00 kg
Trockenmasse 700.00 kg
Gesamtmasse 730.00 kg
Länge 0.30 m
Durchmesser 4.10 m
Spannweite 29.00 m
Form Box + pan
Hersteller SPXS
Bus-Typ Starlink V2M
Phasenstatus In Orbit
Besitzer/Staat SPXS/US

Große Konstellationen

Loading constellations...